| time (UTC) | temp F | wind direction | speed MPH | gust MPH | rain 1hr in | rain 24hr in | rain mn in | humidity % | barometer mb |
| 20260831121537 | 70 | 5 | 0.0 | 0.0 | 0.00 | 0.00 | 0.00 | 1 | 1019.7 |
| 20260831120033 | 68 | 126 | 0.0 | 0.0 | 0.00 | 0.00 | 0.00 | 1 | 1019.5 |
| 20260831114531 | 67 | 126 | 0.0 | 0.0 | 0.00 | 0.00 | 0.00 | 1 | 1019.5 |
| 20260831113022 | 67 | 126 | 0.0 | 0.0 | 0.00 | 0.00 | 0.00 | 1 | 1019.3 |
| 20260831111521 | 67 | 126 | 0.0 | 0.0 | 0.00 | 0.00 | 0.00 | 1 | 1019.1 |
| 20260831110014 | 67 | 126 | 0.0 | 0.0 | 0.00 | 0.00 | 0.00 | 1 | 1018.9 |
| 20260831104512 | 68 | 126 | 0.0 | 0.0 | 0.00 | 0.00 | 0.00 | 1 | 1018.8 |
| 20260831103005 | 68 | 126 | 0.0 | 0.0 | 0.00 | 0.00 | 0.00 | 1 | 1018.6 |
| 20260831101505 | 68 | 126 | 0.0 | 0.0 | 0.00 | 0.00 | 0.00 | 1 | 1018.4 |
| 20260831100104 | 68 | 126 | 0.0 | 0.0 | 0.00 | 0.00 | 0.00 | 1 | 1018.5 |
| 20260831094553 | 68 | 126 | 0.0 | 0.0 | 0.00 | 0.00 | 0.00 | 1 | 1018.4 |
| 20260831093053 | 68 | 126 | 0.0 | 0.0 | 0.00 | 0.00 | 0.00 | 1 | 1018.4 |
| 20260831091544 | 68 | 126 | 0.0 | 0.0 | 0.00 | 0.00 | 0.00 | 1 | 1018.4 |
| 20260831090049 | 68 | 126 | 0.0 | 0.0 | 0.00 | 0.00 | 0.00 | 1 | 1018.3 |
| 20260831084538 | 68 | 126 | 0.0 | 0.0 | 0.00 | 0.00 | 0.00 | 1 | 1018.1 |
| 20260831083032 | 68 | 126 | 0.0 | 0.0 | 0.00 | 0.00 | 0.00 | 1 | 1018.1 |
| 20260831081526 | 69 | 126 | 0.0 | 0.0 | 0.00 | 0.00 | 0.00 | 1 | 1018.1 |
| 20260831080021 | 69 | 126 | 0.0 | 0.0 | 0.00 | 0.00 | 0.00 | 1 | 1018.0 |
| 20260831074524 | 69 | 126 | 0.0 | 0.0 | 0.00 | 0.00 | 0.00 | 1 | 1018.0 |
| 20260831073013 | 69 | 126 | 0.0 | 0.0 | 0.00 | 0.00 | 0.00 | 1 | 1018.1 |
| 20260831071509 | 69 | 126 | 0.0 | 0.0 | 0.00 | 0.00 | 0.00 | 1 | 1018.2 |
| 20260831070005 | 69 | 126 | 0.0 | 0.0 | 0.00 | 0.00 | 0.00 | 1 | 1018.2 |
| 20260831064601 | 70 | 126 | 0.0 | 0.0 | 0.00 | 0.00 | 0.00 | 1 | 1018.1 |
| 20260831063055 | 70 | 126 | 0.0 | 0.0 | 0.00 | 0.00 | 0.00 | 1 | 1018.2 |
| 20260831061600 | 70 | 126 | 0.0 | 0.0 | 0.00 | 0.00 | 0.00 | 1 | 1018.2 |
| 20260831060051 | 70 | 126 | 0.0 | 0.0 | 0.00 | 0.00 | 0.00 | 1 | 1018.3 |
| 20260831054545 | 71 | 126 | 0.0 | 0.0 | 0.00 | 0.00 | 0.00 | 1 | 1018.3 |
| 20260831053044 | 71 | 126 | 0.0 | 0.0 | 0.00 | 0.00 | 0.00 | 1 | 1018.2 |
| 20260831051538 | 71 | 126 | 0.0 | 0.0 | 0.00 | 0.00 | 0.00 | 1 | 1018.2 |
| 20260831050031 | 71 | 126 | 0.0 | 0.0 | 0.00 | 0.00 | 0.00 | 1 | 1018.3 |
| 20260831044524 | 71 | 126 | 0.0 | 0.0 | 0.00 | 0.00 | 0.00 | 1 | 1018.3 |
| 20260831043020 | 72 | 126 | 0.0 | 0.0 | 0.00 | 0.00 | 0.00 | 1 | 1018.4 |
| 20260831041516 | 72 | 126 | 0.0 | 0.0 | 0.00 | 0.00 | 0.00 | 1 | 1018.4 |
| 20260831040012 | 72 | 126 | 0.0 | 0.0 | 0.00 | 0.00 | 0.00 | 1 | 1018.5 |
| 20260831034511 | 72 | 126 | 0.0 | 0.0 | 0.00 | 0.00 | 0.00 | 1 | 1018.5 |
| 20260831033016 | 72 | 126 | 0.0 | 0.0 | 0.00 | 0.00 | 0.00 | 1 | 1018.6 |
| 20260831031514 | 72 | 126 | 0.0 | 0.0 | 0.00 | 0.00 | 0.00 | 1 | 1018.5 |
| 20260831030010 | 72 | 126 | 0.0 | 0.0 | 0.00 | 0.00 | 0.00 | 1 | 1018.3 |
| 20260831024509 | 73 | 126 | 0.0 | 0.0 | 0.00 | 0.00 | 0.00 | 1 | 1018.3 |
| 20260831023006 | 73 | 126 | 0.0 | 0.0 | 0.00 | 0.00 | 0.00 | 1 | 1018.2 |
| 20260831021503 | 73 | 126 | 0.0 | 0.0 | 0.00 | 0.00 | 0.00 | 1 | 1018.1 |
| 20260831020112 | 74 | 126 | 0.0 | 0.0 | 0.00 | 0.00 | 0.00 | 1 | 1018.1 |
| 20260831014556 | 74 | 126 | 0.0 | 0.0 | 0.00 | 0.00 | 0.00 | 1 | 1017.8 |
| 20260831013058 | 75 | 126 | 0.0 | 0.0 | 0.00 | 0.00 | 0.00 | 1 | 1017.6 |
| 20260831011547 | 76 | 126 | 0.0 | 0.0 | 0.00 | 0.00 | 0.00 | 8 | 1017.5 |
| 20260831010044 | 77 | 126 | 0.0 | 0.0 | 0.00 | 0.00 | 0.00 | 22 | 1017.3 |
| 20260831004540 | 78 | 126 | 0.0 | 0.0 | 0.00 | 0.00 | 0.00 | 29 | 1017.0 |
| 20260831003038 | 79 | 126 | 0.0 | 0.0 | 0.00 | 0.00 | 0.00 | 42 | 1016.9 |
| 20260831001529 | 81 | 126 | 0.0 | 0.0 | 0.00 | 0.00 | 0.00 | 50 | 1017.0 |
| 20260831000034 | 83 | 126 | 0.0 | 0.0 | 0.00 | 0.00 | 0.00 | 58 | 1017.1 |
| 20260830234533 | 85 | 126 | 0.0 | 0.0 | 0.00 | 0.00 | 0.00 | 64 | 1017.0 |
| 20260830233015 | 86 | 126 | 0.0 | 0.0 | 0.00 | 0.00 | 0.00 | 64 | 1017.0 |
| 20260830231514 | 87 | 287 | 0.0 | 0.0 | 0.00 | 0.00 | 0.00 | 64 | 1017.0 |
| 20260830230006 | 87 | 287 | 0.0 | 0.0 | 0.00 | 0.00 | 0.00 | 64 | 1017.0 |
| 20260830224503 | 87 | 287 | 0.0 | 0.0 | 0.00 | 0.00 | 0.00 | 64 | 1016.9 |
| 20260830223059 | 89 | 287 | 0.0 | 0.0 | 0.00 | 0.00 | 0.00 | 63 | 1016.8 |
| 20260830221554 | 91 | 287 | 0.0 | 0.0 | 0.00 | 0.00 | 0.00 | 61 | 1016.8 |
| 20260830220052 | 91 | 288 | 0.0 | 0.0 | 0.00 | 0.00 | 0.00 | 56 | 1016.8 |
| 20260830214547 | 92 | 221 | 0.0 | 0.0 | 0.00 | 0.00 | 0.00 | 52 | 1016.8 |
| 20260830213040 | 93 | 270 | 0.0 | 0.0 | 0.00 | 0.00 | 0.00 | 47 | 1016.9 |
| 20260830211536 | 93 | 267 | 0.0 | 0.0 | 0.00 | 0.00 | 0.00 | 49 | 1017.0 |
| 20260830210034 | 92 | 244 | 0.0 | 0.0 | 0.00 | 0.00 | 0.00 | 47 | 1017.0 |
| 20260830204527 | 93 | 76 | 0.0 | 0.0 | 0.00 | 0.00 | 0.00 | 47 | 1017.0 |
| 20260830144501 | 84 | 254 | 0.0 | 0.0 | 0.00 | 0.00 | 0.00 | 60 | 1020.3 |
| 20260830143057 | 83 | 271 | 0.0 | 0.0 | 0.00 | 0.00 | 0.00 | 56 | 1020.3 |
| 20260830141553 | 82 | 321 | 0.0 | 0.0 | 0.00 | 0.00 | 0.00 | 51 | 1020.4 |
| 20260830140056 | 80 | 247 | 0.0 | 0.0 | 0.00 | 0.00 | 0.00 | 35 | 1020.3 |
| 20260830134549 | 78 | 84 | 0.0 | 0.0 | 0.00 | 0.00 | 0.00 | 14 | 1020.2 |
| 20260830133039 | 76 | 248 | 0.0 | 0.0 | 0.00 | 0.00 | 0.00 | 1 | 1020.1 |
| 20260830131535 | 75 | 132 | 0.0 | 0.0 | 0.00 | 0.00 | 0.00 | 1 | 1020.1 |
| 20260830130030 | 72 | 327 | 0.0 | 0.0 | 0.00 | 0.00 | 0.00 | 1 | 1020.1 |
| 20260830124533 | 70 | 327 | 0.0 | 0.0 | 0.00 | 0.00 | 0.00 | 1 | 1020.1 |
| 20260830123021 | 69 | 327 | 0.0 | 0.0 | 0.00 | 0.00 | 0.00 | 1 | 1020.0 |